Regional Weather Roundup
Issued by NWS Little Rock, AR

Home | Current Version | Previous Version | Text Only | Print | Product List | Glossary Off
Versions: 1 2 3 4 5 6 7 8 9 10 11 12 13 14 15 16 17 18 19 20 21 22 23 24 25 26 27 28 29 30 31 32 33 34 35 36 37 38 39 40 41 42 43 44 45 46 47 48 49 50

000
ASUS44 KLZK 021005
RWRLZK

WEATHER ROUNDUP FOR ARKANSAS
NATIONAL WEATHER SERVICE LITTLE ROCK AR
500 AM CDT SUN AUG 02 2015

NOTE: "FAIR" INDICATES FEW OR NO CLOUDS BELOW 12,000 FEET WITH NO
SIGNIFICANT WEATHER AND/OR OBSTRUCTIONS TO VISIBILITY.

ARZ001-003-010-029-021100-
NORTHWEST ARKANSAS

CITY           SKY/WX    TMP DP  RH WIND       PRES   REMARKS
FAYETTEVILLE   CLEAR     66  66 100 CALM      30.01S
FORT SMITH     PTCLDY    73  68  84 E3        29.96S
HARRISON       CLEAR     69  63  81 W6        30.01S
BENTONVILLE    CLEAR     70  64  83 CALM      30.01S
ROGERS         CLEAR     71  69  93 CALM      30.02R
SILOAM SPGS    CLEAR     68  61  77 CALM      29.98F
HIGHFILL       CLEAR     69  68  96 SE3       30.00S
$$

ARZ004-005-016-021100-
NORTH CENTRAL ARKANSAS

CITY           SKY/WX    TMP DP  RH WIND       PRES   REMARKS
BATESVILLE     CLEAR     68  66  94 CALM      29.97S
FLIPPIN        CLEAR     68  64  88 CALM      29.96F
MTN HOME       PTCLDY    69  66  90 CALM      29.98S
$$

ARZ040-041-021100-
WEST CENTRAL ARKANSAS

CITY           SKY/WX    TMP DP  RH WIND       PRES   REMARKS
MENA           CLEAR     64  63  94 CALM      30.00F
MOUNT IDA      CLEAR     66  64  93 CALM      29.97S
$$

ARZ009-017-025-026-028-021100-
NORTHEAST ARKANSAS

CITY           SKY/WX    TMP DP  RH WIND       PRES   REMARKS
JONESBORO      CLEAR     70  68  93 CALM      29.96R
NEWPORT        CLEAR     74  73  96 CALM      29.97S
WALNUT RIDGE   CLEAR     73  68  83 CALM      29.96S
BLYTHEVILLE    CLEAR     75  71  87 S3        29.96S
$$

ARZ022-023-033-042-044-021100-
CENTRAL ARKANSAS

CITY           SKY/WX    TMP DP  RH WIND       PRES   REMARKS
LITTLE ROCK    PTCLDY    72  67  84 CALM      29.96S
N LITTLE ROCK    N/A     74  65  74 CALM      29.96S
JACKSONVILLE   CLEAR     67  64  89 CALM      29.95F
SEARCY         CLEAR     69  66  90 CALM      29.97S
HOT SPRINGS    CLEAR     69  64  84 CALM      29.97F
RUSSELLVILLE   CLEAR     68  66  93 CALM      29.96S
$$

ARZ036-021100-
EAST ARKANSAS

CITY           SKY/WX    TMP DP  RH WIND       PRES   REMARKS
WEST MEMPHIS   CLEAR     71  70  96 CALM      29.94S
$$

ARZ050-053-066-070-073-021100-
SOUTHWEST ARKANSAS

CITY           SKY/WX    TMP DP  RH WIND       PRES   REMARKS
ARKADELPHIA    FAIR      67  67 100 CALM      29.96S
CAMDEN         CLEAR     64  63  94 CALM      29.95S FOG
TEXARKANA      CLEAR     69  65  86 CALM      29.95F
EL DORADO      CLEAR     65  62  90 CALM      29.95S
DE QUEEN       CLEAR     65  65 100 CALM      29.94S FOG
$$

ARZ056-057-069-021100-
SOUTHEAST ARKANSAS

CITY           SKY/WX    TMP DP  RH WIND       PRES   REMARKS
PINE BLUFF     CLEAR     68  66  93 CALM      29.95S
STUTTGART      CLEAR     72  66  83 CALM      29.95S
MONTICELLO     CLEAR     68  66  93 CALM      29.95R

$$




USA.gov is the U.S. government's official web portal to all federal, state and local government web resources and services.